Regional Weather Roundup
Issued by NWS

Home | Current Version | Previous Version | Text Only | Print | Product List | Glossary On
Versions: 1 2 3 4 5 6 7 8 9 10 11 12 13 14 15 16 17 18 19 20 21 22 23 24 25 26 27 28 29 30 31 32 33 34 35 36 37 38 39 40 41 42 43 44 45 46 47 48 49
000
ASUS43 KDMX 300007
RWRIA

WEATHER ROUNDUP FOR IOWA
NATIONAL WEATHER SERVICE DES MOINES IA
700 PM CDT WED JUL 29 2015

NOTE: "FAIR" INDICATES FEW OR NO CLOUDS BELOW 12,000 FEET WITH NO
SIGNIFICANT WEATHER AND/OR OBSTRUCTIONS TO VISIBILITY.

* - THESE STATIONS ARE NOT NWS STATIONS...THUS NOT UNDER NWS
QUALITY CONTROL.  THEY ALSO DO NOT REPORT WEATHER SUCH
AS PRECIPITATION OR FOG.

IAZ001>003-012>014-020>022-031>034-043>046-300100-
   NORTHWEST IOWA

CITY           SKY/WX    TMP DP  RH WIND       PRES   REMARKS
CARROLL *      SUNNY     79  63  57 W8        30.11F HX  80
CHEROKEE *     SUNNY     79  60  51 SW6       30.10S HX  80
DENISON *      SUNNY     79  63  57 W7        30.11S HAZE    HX  80
LE MARS *      SUNNY     81  59  47 SW7       30.10F HX  81
ORANGE CITY *  SUNNY     79  61  53 W8        30.10S HX  80
SHELDON *      SUNNY     79  61  53 W8        30.07F HX  80
SIOUX CITY     SUNNY     82  61  48 W7        30.10F HX  83
6HR MIN TEMP:  81; 6HR MAX TEMP:  85;

SPENCER        SUNNY     81  57  43 W12       30.08S HX  81
6HR MIN TEMP:  81; 6HR MAX TEMP:  83;

STORM LAKE *   SUNNY     77  59  53 W8        30.11F
$$

IAZ055>058-069>071-079>083-090>094-300100-
   SOUTHWEST IOWA

CITY           SKY/WX    TMP DP  RH WIND       PRES   REMARKS
ATLANTIC *     SUNNY     79  63  57 SW3       30.13F HX  80
AUDUBON *      SUNNY     81  64  57 CALM      30.14S HX  82
CLARINDA *     SUNNY     81  59  47 NW6       30.16S HX  81
COUNCIL BLFS * SUNNY     79  63  57 W3        30.15S HX  80
CRESTON *      SUNNY     77  61  57 NW7       30.14F
HARLAN  *      SUNNY     79  63  57 W5        30.17S HX  80
LAMONI         SUNNY     79  63  57 W5        30.13F HX  80
RED OAK *      SUNNY     81  61  50 CALM      30.14F HX  81
SHENANDOAH *   SUNNY     81  68  65 CALM      30.15S HX  83
$$

IAZ047>049-059>061-072>074-084-300100-
   CENTRAL IOWA

CITY           SKY/WX    TMP DP  RH WIND       PRES   REMARKS
AMES           SUNNY     79  60  52 W8        30.09S HX  80
6HR MIN TEMP:  79; 6HR MAX TEMP:  82;

ANKENY *       SUNNY     81  57  44 W13       30.09F HX  81
CHARITON *     SUNNY     81  61  50 NW6       30.11F HX  81
DES MOINES     MOSUNNY   83  54  36 NW9       30.09F HX  82
6HR MIN TEMP:  83; 6HR MAX TEMP:  86;

GRINNELL*      SUNNY     79  59  50 W7        30.09S HX  80
KNOXVILLE *    SUNNY     79  61  53 W7        30.09S HX  80
MARSHALLTOWN   SUNNY     79  62  56 W8        30.07S HX  80
PELLA *        SUNNY     81  65  59 NW6       30.10S HX  82
PERRY *          N/A     77  63  61 W7        30.11S
$$

IAZ004>006-015-016-023>025-035-036-300100-
   NORTH CENTRAL IOWA

CITY           SKY/WX    TMP DP  RH WIND       PRES   REMARKS
ALGONA *       SUNNY     79  59  50 W10       30.07F HX  80
CLARION *      SUNNY     77  61  57 W10       30.08S
ESTHERVILLE    SUNNY     79  57  46 W9        30.06F HX  80
6HR MIN TEMP:  78; 6HR MAX TEMP:  80;

FORT DODGE *   SUNNY     79  59  50 W8        30.09F HX  80
MASON CITY     SUNNY     79  59  50 W13       30.06F HX  80
6HR MIN TEMP:  79; 6HR MAX TEMP:  83;

FOREST CITY *  SUNNY     77  59  53 W7        30.06S
IOWA FALLS *     N/A     79  60  51 W9        30.09S HX  80
$$

IAZ007>011-017>019-026>030-037>042-050>054-066-300100-
   NORTHEAST IOWA

CITY           SKY/WX    TMP DP  RH WIND       PRES   REMARKS
CEDAR RAPIDS   SUNNY     78  63  59 W9        30.05S HX  80
6HR MIN TEMP:  78; 6HR MAX TEMP:  82;

CHARLES CITY * SUNNY     79  57  47 W13       30.05S HX  80
CLINTON *      SUNNY     79  63  57 W10       30.05S HX  80
DECORAH *      SUNNY     79  55  44 VRB7G16   30.01S
DUBUQUE        SUNNY     79  57  46 W14       30.03S HX  80
6HR MIN TEMP:  79; 6HR MAX TEMP:  82;

MONTICELLO *   SUNNY     79  59  50 W8        30.03S HX  80
OELWEIN *      SUNNY     79  59  50 W12       30.05S HX  80
WATERLOO       SUNNY     80  58  46 W13       30.04S HX  80
6HR MIN TEMP:  80; 6HR MAX TEMP:  83;

$$

IAZ064-065-067-068-078-300100-
   EAST CENTRAL IOWA

CITY           SKY/WX    TMP DP  RH WIND       PRES   REMARKS
DAVENPORT      SUNNY     79  60  52 W8        30.04S HX  80
6HR MIN TEMP:  79; 6HR MAX TEMP:  82;

IOWA CITY      SUNNY     81  57  43 W9        30.06S HX  81
6HR MIN TEMP:  81; 6HR MAX TEMP:  84;

MT. PLEASANT * SUNNY     82  52  34 W7        30.07S HX  81
MUSCATINE *    SUNNY     82  61  47 W8        30.05S HX  83
QUAD CITIES    SUNNY     82  57  42 W13       30.03S HX  82
6HR MIN TEMP:  82; 6HR MAX TEMP:  86;

$$

IAZ062-063-075>077-085>089-095>099-300100-
   SOUTHEAST IOWA

CITY           SKY/WX    TMP DP  RH WIND       PRES   REMARKS
BURLINGTON     SUNNY     80  61  52 NW8       30.06F HX  81
6HR MIN TEMP:  80; 6HR MAX TEMP:  84;

FAIRFIELD *    SUNNY     79  63  57 W6        30.08S HX  80
FORT MADISON * SUNNY     79  64  61 W6        30.08S HX  81
KEOKUK *       SUNNY     81  61  50 W7        30.07S HX  81
OSKALOOSA *      N/A     78  64  62 W5        30.09S
CENTERVILLE *  SUNNY     77  63  61 W6        30.13S
OTTUMWA        SUNNY     78  65  63 W6        30.07F HX  80
6HR MIN TEMP:  78; 6HR MAX TEMP:  83;

WASHINGTON *   SUNNY     79  63  57 W7        30.08S HX  80
$$

ABBREVIATIONS USED IN REMARKS
   TC - TEMPERATURES IN CELSIUS
  WCI - WIND CHILL INDEX
   HX - HEAT INDEX
  VSB - VISIBILITY
$$



USA.gov is the U.S. government's official web portal to all federal, state and local government web resources and services.